Tracking 33877 objects as of 19-Apr-2026
HD Live streaming from Space Station
objects crossing your sky now

STARLINK-32108

Track STARLINK-32108 now!
10-day predictions
STARLINK-32108 is classified as:


NORAD ID: 59682
Int'l Code: 2024-086A
Perigee: 489.6 km
Apogee: 490.8 km
Inclination: 43.0 °
Period: 94.3 minutes
Semi major axis: 6861 km
RCS: Unknown
Launch date: May 8, 2024
Source: United States (US)
Launch site: AIR FORCE EASTERN TEST RANGE (AFETR)
Your satellite tracking list
Your tracking list is empty




NASA's NSSDC Master Catalog

Two Line Element Set (TLE):
1 59682U 24086A   26109.51437832 -.00000360  00000-0 -35619-5 0  9991
2 59682  43.0007 192.9446 0000840 258.6059 101.4698 15.27570367110305
Source of the keplerian elements: AFSPC